Location: Christianberg
(48.9086°N, 14.0209°E)
Time: 22:26:12
(UTC+00:00)

USA 307 - Pass Details

Date: 20 June 2021
Orbit: 565 x 576 km, 54.0° (Epoch: 17 July)

Event Time Altitude Azimuth Distance (km) Brightness Sun altitude
Exits shadow 00:37:18 24° 180° (S) 1,184 4.0 -14.8°
Maximum altitude 00:38:57 33° 138° (SE) 960 3.8 -14.7°
Drops below altitude 10° 00:42:47 10° 74° (ENE) 1,868 6.1 -14.5°
Sets 00:45:11 0° 65° (ENE) 2,767 7.2 -14.3°
